Flag for U.S.A. Weather past 2 weeks in New City, New York, U.S.A.

Now
68 °F

Broken clouds.


Feels Like: 68 °F
Forecast: 63 / 76 °F
Wind: 8 mph from East

Location: Westchester County Airport

Current Time: Aug 23, 2014 at 10:18:24 AM

Latest Report: Aug 23, 2014 at 9:56 AM


Visibility: 10 mi

Pressure: 30.09 "Hg

Humidity: 70%

Dew point: 58 °F

Location of New CityLocation

Historic Weather in New City — Graph

°F

New City temperature yesterday

Maximum temperature yesterday: 74 °F (at 1:56 PM)
Minimum temperature yesterday: 64 °F (at 6:03 AM)
Average temperature yesterday: 68 °F

Past Weeks' High & Low Weather Summary

 TemperatureHumidityPressure
High86 °F (Aug 10, 2:56 PM)100% (Aug 22, 6:03 AM)30.14 "Hg (Aug 22, 6:03 AM)
Low55 °F (Aug 15, 5:56 AM)31% (Aug 10, 2:56 PM)29.64 "Hg (Aug 13, 3:56 PM)
Average70 °F69%29.96 "Hg
* Reported Aug 8 8:56 AM — Aug 23 8:56 AM, New City, Weather by CustomWeather, © 2014

Note: Actual official high and low records may vary slightly from our data, if they occured in-between our weather recording intervals... More about our weather records

Advertising

New City weather history for previous 24 hours

 ConditionsComfort  
Time TempWeatherWind HumidityBarometerVisibility
8:56 AM
Aug 23
67 °FPartly sunny.7 mph79%30.08 "Hg10 mi
7:56 AM66 °FPassing clouds.7 mph81%30.08 "Hg10 mi
6:56 AM64 °FPassing clouds.6 mph84%30.07 "Hg10 mi
5:56 AM64 °FClear.5 mph87%30.05 "Hg10 mi
4:56 AM64 °FClear.5 mph87%30.04 "Hg10 mi
3:56 AM65 °FPassing clouds.6 mph87%30.03 "Hg10 mi
2:56 AM66 °FPassing clouds.5 mph87%30.04 "Hg10 mi
1:56 AM66 °FMostly cloudy.3 mph87%30.05 "Hg10 mi
12:56 AM66 °FOvercast.3 mph81%30.04 "Hg10 mi
11:56 PM
Aug 22
67 °FOvercast.No wind76%30.06 "Hg10 mi
10:56 PM68 °FOvercast.6 mph73%30.05 "Hg10 mi
9:56 PM68 °FPartly cloudy.No wind82%30.05 "Hg10 mi
8:56 PM68 °FPassing clouds.5 mph78%30.04 "Hg10 mi
7:56 PM69 °FPartly sunny.6 mph76%30.04 "Hg10 mi
6:56 PM69 °FPartly sunny.6 mph70%30.03 "Hg10 mi
5:56 PM70 °FOvercast.8 mph66%30.03 "Hg10 mi
4:56 PM71 °FPartly sunny.6 mph61%30.01 "Hg10 mi
3:56 PM73 °FBroken clouds.9 mph51%30.01 "Hg10 mi
2:56 PM74 °FScattered clouds.6 mph60%30.01 "Hg10 mi
1:56 PM74 °FPartly sunny.8 mph60%30.03 "Hg10 mi
12:56 PM72 °FPartly sunny.7 mph61%30.03 "Hg10 mi
11:56 AM69 °FBroken clouds.6 mph76%30.04 "Hg10 mi
10:56 AM68 °FBroken clouds.6 mph82%30.06 "Hg10 mi
Weather by CustomWeather, © 2014

See weather overviewHow to use our weather pages